Regional Weather Roundup
Issued by NWS Charleston, SC

Current Version | Previous Version | Graphics & Text | Print | Product List | Glossary On
Versions: 1 2 3 4 5 6 7 8 9 10 11 12 13 14 15 16 17 18 19 20 21 22 23 24 25 26 27 28 29 30 31 32 33 34 35 36 37 38 39 40 41 42 43 44 45 46 47 48 49 50
000
ASUS42 KCHS 221825
RWRCHS

REGIONAL WEATHER ROUNDUP
NATIONAL WEATHER SERVICE CHARLESTON SC
200 PM EDT FRI AUG 22 2014

NOTE: "FAIR" INDICATES FEW OR NO CLOUDS BELOW 12,000 FEET WITH NO
SIGNIFICANT WEATHER AND/OR OBSTRUCTIONS TO VISIBILITY.

NOT ALL STATIONS ARE QUALITY CONTROLLED BY THE NATIONAL
WEATHER SERVICE. USE DATA WITH CAUTION...ESPECIALLY
DEWPOINT OBSERVATIONS.

SCZ027-030-031-034>040-042>050-221900-
...SOUTH CAROLINA...

CITY           SKY/WX    TMP DP  RH WIND       PRES   REMARKS
N CHARLESTON   MOSUNNY   98  70  40 VRB6      30.01F HX 105
6HR MIN TEMP:  81; 6HR MAX TEMP:  98;

WATERFRONT PRK   N/A     97 N/A N/A W3G10       N/A
FORT JOHNSON   NOT AVBL
MOUNT PLEASANT FAIR      97  72  44 CALM      30.00F HX 105
JOHNS ISLAND   DRIZZLE   99  72  41 W7        30.01F HX 107
PINOPOLIS        N/A     97  75  49 CALM      29.94R HX 109
MONCKS CORNER    N/A     97  77  52 W5        30.00  HX 112
SUMMERVILLE    FAIR      97  72  44 W5        30.01F HX 105
BEAUFORT MCAS  PTSUNNY   98  71  41 N9        30.01F HX 106
6HR MIN TEMP:  80; 6HR MAX TEMP:  98;

BEAUFORT ARPT  FAIR      97  73  46 NW5       30.01F HX 107
HILTON HEAD IS MOSUNNY   95  79  59 CALM      30.03F HX 112
GEORGETOWN     NOT AVBL
WALTERBORO     PTCLDY    99  63  30 S5        30.02S HX 100
ORANGEBURG     SUNNY     96  67  38 W5        30.01F HX 100
6HR MIN TEMP:  76; 6HR MAX TEMP:  97;

BARNWELL       FAIR      99  68  36 W10G17    30.02F HX 104
AIKEN          FAIR      95  72  46 W12       30.06F HX 103
MANNING        FAIR      99  68  36 NW6       30.00S HX 104
KINGSTREE      NOT AVBL
COLUMBIA       PTSUNNY   96  65  35 W9        30.01F HX  98
6HR MIN TEMP:  76; 6HR MAX TEMP:  97;

SUMTER         MOSUNNY   96  70  42 NW8       29.99F HX 102
6HR MIN TEMP:  81; 6HR MAX TEMP:  96;

FLORENCE       MOSUNNY   94  70  45 W3        30.00F HX 100
6HR MIN TEMP:  77; 6HR MAX TEMP:  95;

MYRTLE BEACH   MOSUNNY   93  77  59 S12       30.00F HX 107
N MYRTLE BEACH MOSUNNY   90  77  65 S6        30.00F HX 103
6HR MIN TEMP:  77; 6HR MAX TEMP:  92;


$$

GAZ063-065-086>088-099>101-113>116-118-119-134-136>141-150-221900-
...GEORGIA...

CITY           SKY/WX    TMP DP  RH WIND       PRES   REMARKS
SAVANNAH ARPT  MOSUNNY   98  70  40 NW10      30.03F HX 105
6HR MIN TEMP:  77; 6HR MAX TEMP:  98;

HUNTER AAF     SUNNY     97  72  44 W9G17     30.01F HX 106
6HR MIN TEMP:  78; 6HR MAX TEMP:  97;

FORT STEWART   SUNNY     98  69  39 W13       30.02F HX 104
6HR MIN TEMP:  75; 6HR MAX TEMP:  98;

STATESBORO     NOT AVBL
SYLVANIA       PTCLDY    97  75  48 W8        30.03F HX 110
CLAXTON        FAIR      97  72  44 W3        30.03F HX 105
THOMSON        SUNNY     96  75  51 W7        30.08F HX 108
AUGUSTA-BUSH   SUNNY     97  69  40 NW13      30.02F HX 103
6HR MIN TEMP:  74; 6HR MAX TEMP:  97;

AUGUSTA-DANIEL MOSUNNY   96  69  41 VRB6      30.04F HX 102
SWAINSBORO     FAIR      99  70  39 W10       30.04F HX 105
VIDALIA          N/A     97  72  44 N9        30.04F HX 105
ALMA           SUNNY     96  70  42 NW6       30.06F HX 102
6HR MIN TEMP:  74; 6HR MAX TEMP:  96;

WAYCROSS       MOSUNNY   99  76  47 N8        30.04F HX 112
JESUP            N/A     97  72  44 W5        30.03F HX 105
BRUNSWICK      MOSUNNY   97  68  38 NW5       30.03F HX 101
SAINT SIMONS   SUNNY     97  70  41 CALM      30.03F HX 103
6HR MIN TEMP:  77; 6HR MAX TEMP:  98;


$$

SCZ027-028-034-036>038-045-046-048>050-GAZ119-141-221900-
...LAKE AND SUPPLEMENTAL COASTAL OBSERVATIONS...

STATION/POSITION TIME  TEMP    WIND        PRES    WAVE   SWELL
                       AIR SEA DIR/SP/G            HT/PER HT/PER/DIR
                 (UTC) (F)     (DEG/KT/KT) (MB)    (FT/S) (FT/S/D)
UPR LAKE MARION  NOT AVBL
WINYAH BAY       1800   93     130/  5     1016.0S
LAKE MURRAY      1700   90     190/  6/  7 1015.9F
ACE BASIN NERRS  1800   96     290/  2     1017.0S
FORT PULASKI     1800   93     270/  4/  6 1017.0F
SAPELO ISLAND    1800   97     340/  2     1018.0S

$$

ANZ835-935-AMZ111-154-330-350-352-354-374-450-454-472-221900-
...C-MAN AND BUOY OBSERVATIONS...

STATION/POSITION TIME  TEMP    WIND        PRES    WAVE   SWELL
                       AIR SEA DIR/SP/G            HT/PER HT/PER/DIR
                 (UTC) (F)     (DEG/KT/KT) (MB)    (FT/S) (FT/S/D)
FOLLY BEACH CMAN 1800   89     180/ 10/ 12 1016.8F
BUOY 41004       1800   85 86  200/  6/  6 1016.3F   2/ 9   2/ 9
BUOY 41008       1800   87 88  210/  2/  2 1017.4F   1/ 9
5E ST. MARYS GA  1800      85                N/A     1/ 9
FRYING PAN BUOY  NOT AVBL
BUOY 41025       1800   80     260/ 10/ 12 1014.4F   2/ 8   2/ 40/ 8
CAPE LOOKOUT NC  1800   85     240/  9/ 11 1014.9F
BUOY 41002       1709   82 83  250/ 14/ 16 1017.5F   2/10   2/180/10
BUOY 41010       1800   84 86  170/  4/  4 1018.5F   2/ 7   2/130/ 7
BUOY 41012       NOT AVBL
ST AUGUSTINE FL  1800   83     110/  5/  5 1018.5F
CAPERS NEARSHORE NOT AVBL
FRIPP NEARSHORE  NOT AVBL


$$



USA.gov is the U.S. government's official web portal to all federal, state and local government web resources and services.